Skip Page Navigation
NASA JPL Caltech
NASA Logo - Jet Propulsion Laboratory + View the NASA Portal
+ Center for Near-Earth Object Studies
JPL Home Earth Solar System Stars & Galaxies Technology
JPL Solar System Dynamics
BODIES ORBITS EPHEMERIDES TOOLS PHYSICAL DATA DISCOVERY FAQ SITE MAP
IMPORTANT: The SSD Announcement email list is now available. Major changes are coming in the near future, including possible hostname and/or URL changes. To be notified of such changes, subscribe to this email list.

Please visit this page for more details.


JPL Small-Body Database Browser
Search: [ help ]  
270 Anahita
Classification: Main-belt Asteroid          SPK-ID: 2000270
Ephemeris | Orbit Diagram | Orbital Elements | Mission Design | Physical Parameters | Discovery Circumstances | Close-Approach Data ]

[ show orbit diagram ]
Orbital Elements at Epoch 2458600.5 (2019-Apr-27.0) TDB
Reference: JPL 104 (heliocentric ecliptic J2000)
 Element Value Uncertainty (1-sigma)   Units 
e .1504258370490766 3.2423e-08  
a 2.198150619122515 4.2856e-09 au
q 1.867491972281065 7.0975e-08 au
i 2.368374202259922 3.6388e-06 deg
node 254.3498623263642 7.4452e-05 deg
peri 80.68417857484128 7.5469e-05 deg
M 161.4457139457177 1.2738e-05 deg
tp 2458066.663066718929
(2017-Nov-09.16306672)
4.1407e-05 TDB
period 1190.377194192977
3.26
3.4812e-06
9.531e-09
d
yr
n .3024251487311668 8.8444e-10 deg/d
Q 2.528809265963965 4.9303e-09 au
  Orbit Determination Parameters
   # obs. used (total)      2633  
   data-arc span      44364 days (121.46 yr)  
   first obs. used      1897-11-23  
   last obs. used      2019-05-12  
   planetary ephem.      DE431  
   SB-pert. ephem.      SB431-N16  
   condition code      0  
   norm. resid. RMS      .48962  
   source      ORB  
   producer      Otto Matic  
   solution date      2019-May-29 19:05:22  

Additional Information
 Earth MOID = .858449 au 
 Jupiter MOID = 2.81508 au 
 T_jup = 3.651 
[ show covariance matrix ]

Ephemeris | Orbit Diagram | Orbital Elements | Mission Design | Physical Parameters | Discovery Circumstances | Close-Approach Data ]

Physical Parameter Table
Parameter Symbol Value Units Sigma Reference Notes
absolute magnitude H 8.75   n/a IRAS-A-FPA-3-RDR-IMPS-V6.0 IRAS observations used: 17
diameter diameter 51.400 km 1.495 urn:nasa:pds:neowise_diameters_albedos::2.0[mainbelt] (http://adsabs.harvard.edu/abs/2014ApJ...791..121M)  
rotation period rot_per 15.06 h n/a LCDB (Rev. 2019-January); Warner et al., 2009 Published Reference List:
[Harris, A.W.; Young, J.W. (1980) Icarus 43, 20-32.]
[Erikson, A.; Mottola, S.; Lagerros, J.S.V.; Lindgren, M.; et al. (2000) Icarus 147, 487-497.]
[Tungalag, N.; Shevchenko, V.G.; Lupishko, D.F. (2002) Kin. Fiz. Neb. Tel 18, 508-516; Kinematics and Physics of Celestial Bodies 18, ???-???.]
[Durech, J.; Hanus, J.; Oszkiewsicz, D.; Vanco, R. (2016) Astron. Astrophys. 587, A48.]
[Hanus, J.; Durech, J.; Oszkiewicz, D.A.; Behrend, R.; et al. (2016) Astron. Astrophys. 586, A108.]
geometric albedo albedo 0.211   0.027 urn:nasa:pds:neowise_diameters_albedos::2.0[mainbelt] (http://adsabs.harvard.edu/abs/2014ApJ...791..121M)  
B-V BV 0.866   0.010 EAR-A-5-DDR-UBV-MEAN-VALUES-V1.2 #obs=3; phase (min.=10.43, mean=11.31, max.=12.53) deg.
U-B UB 0.530   0.026 EAR-A-5-DDR-UBV-MEAN-VALUES-V1.2 #obs=3; phase (min.=10.43, mean=11.31, max.=12.53) deg.
Tholen spectral type spec_T S   n/a EAR-A-5-DDR-TAXONOMY-V4.0 used 2 color indices; used ground-based radiometric albedo

270 Anahita          Discovered 1887-Oct-08 by Peters, C. H. F. at Clinton
Reference: DISCOVERY.DBLast Updated: 2003-08-29

[ show close-approach data ]
Alternate Designations
 1926 VG 
Ephemeris | Orbit Diagram | Orbital Elements | Mission Design | Physical Parameters | Discovery Circumstances | Close-Approach Data ]
ABOUT SSD CREDITS/AWARDS PRIVACY/COPYRIGHT GLOSSARY LINKS
FirstGov 2019-Dec-13 08:12 UT
(server date/time)  
NASA Home Page
Site Manager:   Ryan S. Park
Webmaster  Alan B. Chamberlin